Location: Newark
(54.6833°N, 25.2833°E)
Time: 02:52:11
(UTC+00:00)

A-11 Canister half - Pass Details

Date: 25 January 2021
Orbit: 1525 x 1684 km, 47.3° (Epoch: 05 March)

Event Time Altitude Azimuth Distance (km) Brightness Sun altitude
Rises 16:12:46 0° 267° (W) 4,708 13.4 -12.6°
Reaches altitude 10° 16:15:52 10° 263° (W) 3,740 12.5 -13.1°
Maximum altitude 16:24:58 54° 190° (S) 1,872 9.6 -14.3°
Drops below altitude 10° 16:34:22 10° 117° (ESE) 3,857 10.6 -15.7°
Enters shadow 16:34:26 10° 117° (ESE) 3,881 10.6 -15.7°
